Temperature
8 8 8 8 8 7 7 7 6 6 6 6 6 6 6 6 6 6 6 6 6 6 6 6 6 6 6 6 5 5 5 4 4 4 4 3 3 3
7 7 7 7 7 7 7 6 6 5 5 5 5 5 5 5 5 5 5 5 5 5 5 5 5 5 5 5 5 4 4 4 3 3 3 3 3 2
7 7 7 7 7 7 6 6 5 5 4 4 4 4 4 4 4 4 4 4 4 4 4 4 4 4 4 4 4 3 3 3 3 2 2 2 2 2
6 6 6 6 6 6 5 5 5 5 4 4 4 4 4 4 3 3 3 3 3 3 3 3 3 3 3 3 3 2 2 2 2 2 2 1 1 1
5 5 5 5 5 5 4 4 4 4 4 3 3 3 3 3 3 3 2 2 2 2 2 2 2 2 2 2 2 2 1 1 1 1 1 1 1 1
4 4 4 4 4 4 4 3 3 3 3 2 2 2 2 2 2 2 2 1 1 1 1 1 1 1 1 1 1 1 1 1 1 1 0 0 0 -0
4 3 3 3 3 3 3 2 2 2 2 1 1 1 1 1 1 1 1 1 1 1 1 1 1 1 0 0 0 0 0 0 0 -0 -0 -1 -1 -1
3 2 2 2 2 2 1 1 1 1 1 0 0 -0 -0 -0 -1 -1 -1 -1 -1 -0 -0 -0 -0 -0 -0 -0 -0 -0 -0 -0 -1 -1 -1 -1 -2 -2
2 2 1 1 1 1 0 0 0 -0 -0 -1 -1 -1 -2 -2 -2 -2 -2 -2 -2 -2 -2 -1 -2 -2 -1 -1 -1 -1 -1 -1 -2 -2 -2 -2 -2 -3
1 1 1 0 0 -0 -0 -1 -1 -1 -1 -2 -2 -2 -2 -3 -3 -3 -3 -3 -3 -3 -3 -3 -3 -3 -2 -2 -2 -2 -2 -2 -2 -3 -3 -3 -3 -4
1 0 -0 -1 -1 -1 -1 -2 -2 -2 -2 -2 -2 -3 -3 -3 -3 -4 -4 -4 -5 -5 -4 -4 -4 -4 -3 -3 -3 -3 -3 -3 -3 -3 -3 -4 -4 -4
-0 -0 -1 -1 -1 -2 -2 -3 -3 -3 -3 -3 -3 -3 -4 -4 -4 -4 -5 -5 -5 -6 -5 -5 -5 -5 -5 -4 -4 -4 -4 -4 -4 -4 -4 -4 -4 -4
-1 -1 -1 -1 -2 -2 -3 -3 -3 -3 -4 -4 -4 -4 -4 -4 -5 -5 -5 -5 -6 -6 -6 -6 -6 -6 -6 -5 -4 -4 -4 -4 -4 -4 -4 -4 -4 -4
-1 -1 -1 -2 -2 -2 -3 -3 -3 -3 -4 -4 -4 -5 -5 -5 -5 -5 -5 -5 -6 -6 -6 -6 -6 -6 -7 -6 -5 -5 -5 -5 -5 -5 -5 -4 -4 -4
-1 -1 -2 -2 -2 -2 -3 -3 -3 -4 -4 -4 -5 -5 -5 -5 -5 -5 -5 -5 -6 -6 -6 -6 -6 -6 -7 -7 -6 -5 -5 -4 -5 -5 -5 -5 -5 -5
-1 -1 -2 -2 -2 -3 -3 -3 -3 -4 -4 -4 -5 -5 -5 -5 -5 -5 -6 -6 -6 -6 -6 -6 -7 -7 -6 -6 -6 -6 -5 -6 -5 -6 -6 -5 -5 -5
-1 -2 -2 -2 -3 -3 -3 -3 -3 -4 -4 -4 -5 -5 -5 -5 -6 -6 -6 -6 -6 -6 -6 -6 -7 -7 -7 -7 -6 -6 -6 -6 -6 -6 -6 -6 -5 -5
-2 -2 -2 -3 -3 -3 -3 -4 -4 -4 -4 -4 -5 -5 -5 -6 -6 -6 -6 -6 -6 -6 -6 -7 -7 -8 -7 -6 -6 -6 -6 -6 -6 -6 -7 -7 -6 -5
-2 -2 -3 -3 -3 -3 -3 -4 -4 -4 -4 -5 -5 -5 -6 -6 -6 -6 -7 -7 -7 -7 -7 -7 -8 -8 -9 -9 -7 -7 -7 -6 -7 -7 -7 -7 -7 -6
-2 -2 -3 -3 -3 -3 -4 -4 -4 -4 -5 -5 -5 -6 -6 -6 -6 -6 -7 -7 -7 -7 -7 -7 -8 -8 -9 -9 -9 -7 -7 -7 -7 -7 -7 -8 -7 -7
-2 -3 -3 -3 -3 -4 -4 -4 -4 -4 -5 -5 -5 -6 -6 -6 -6 -7 -7 -7 -8 -8 -7 -7 -8 -9 -9 -9 -9 -7 -7 -7 -8 -8 -8 -8 -8 -7
-3 -3 -3 -3 -4 -4 -4 -4 -4 -5 -5 -5 -6 -6 -6 -7 -7 -7 -7 -8 -8 -8 -8 -8 -8 -9 -9 -9 -9 -8 -8 -7 -8 -8 -8 -8 -9 -9
-3 -3 -4 -4 -4 -4 -4 -4 -5 -5 -5 -6 -6 -6 -6 -7 -7 -7 -8 -8 -8 -8 -8 -9 -9 -9 -9 -9 -9 -9 -8 -8 -8 -8 -8 -7 -8 -8
Wind_Speed
2 2 1 2 2 2 2 2 4 5 5 2 1 4 7 8 10 9 9 11 12 11 11 10 7 4 3 2 3 6 9 11 11 11 12 11 10 10
3 4 4 3 3 3 2 2 1 3 3 1 2 4 6 7 9 8 8 10 11 11 9 8 4 3 2 2 4 7 9 10 9 9 9 10 10 10
5 5 5 5 4 4 3 2 2 1 3 1 1 3 5 6 7 8 8 9 9 12 11 8 6 5 5 5 7 8 8 8 7 7 7 8 9 10
5 6 6 4 5 4 3 3 2 2 1 2 1 3 3 5 6 6 7 8 9 12 12 11 10 9 9 8 6 5 4 5 6 6 8 9 10 10
6 6 6 5 5 4 4 4 3 2 2 0 1 2 2 4 4 4 5 6 7 10 11 11 11 10 8 6 4 2 2 3 5 7 8 9 10 10
7 7 6 6 6 5 4 5 4 3 2 1 1 1 2 3 3 4 3 4 5 6 7 7 8 8 7 6 4 2 1 3 5 6 8 9 10 12
6 7 8 9 9 7 5 5 4 3 2 2 1 1 2 3 3 4 4 3 2 4 4 4 4 4 3 3 3 3 4 5 7 8 10 11 12 13
5 5 6 7 8 9 10 9 7 4 3 2 1 2 2 3 3 4 4 4 2 3 5 4 3 3 3 3 4 6 7 9 10 11 13 14 14 15
4 4 3 4 5 4 5 6 7 8 6 3 2 2 3 3 4 4 4 4 4 5 5 4 3 4 3 4 6 8 8 10 11 12 12 13 14 15
3 3 2 2 3 3 3 3 3 3 4 3 3 3 3 3 3 3 4 5 5 3 3 3 4 5 5 6 3 5 6 7 8 10 11 12 13 14
1 1 1 1 2 1 1 2 1 1 2 3 4 4 4 4 5 4 3 4 4 2 1 3 4 6 6 4 2 3 5 6 8 9 11 11 12 13
1 1 1 3 3 1 2 3 3 2 2 2 2 2 2 2 2 3 3 3 3 3 1 3 4 4 5 3 3 5 7 8 9 9 9 10 10 10
2 2 1 3 4 3 3 3 3 4 3 3 3 3 2 2 2 2 2 3 4 4 2 2 3 3 4 5 5 6 6 6 7 8 10 12 12 12
3 3 2 3 4 4 4 3 3 3 3 4 4 3 3 3 3 4 4 5 6 8 7 5 4 4 5 5 6 6 6 8 9 8 9 11 12 15
4 4 4 5 4 4 4 4 4 4 4 4 4 4 3 4 4 4 5 6 9 10 11 10 8 7 7 7 7 8 7 7 8 7 7 7 7 8
5 5 6 6 5 5 5 4 4 4 5 5 5 5 4 4 5 4 5 5 6 6 6 9 10 9 8 10 10 11 10 7 6 7 8 9 10 12
4 4 5 5 5 5 5 5 5 5 5 5 5 5 5 5 5 5 5 5 6 6 6 5 9 11 11 11 10 12 12 12 11 10 9 11 10 11
7 6 6 6 6 5 5 5 5 5 5 5 5 6 6 6 6 6 6 7 8 8 8 6 6 6 6 9 15 14 12 11 10 9 10 11 12 11
8 7 7 6 6 6 6 6 6 6 5 6 6 6 6 6 7 7 7 7 8 9 8 7 7 6 8 10 7 14 12 10 10 10 10 11 13 12
8 8 8 7 7 7 7 7 6 6 6 6 7 7 7 7 7 8 8 9 9 9 9 8 9 9 10 9 8 7 12 13 12 12 12 12 13 16
8 8 8 8 7 7 7 7 7 7 7 7 7 8 7 7 8 8 9 12 11 10 11 11 9 11 9 8 10 11 11 17 18 13 12 12 13 13
9 8 8 8 8 7 7 7 7 7 8 8 8 8 8 8 9 10 10 10 10 10 12 11 9 8 9 11 14 16 16 14 16 23 26 23 12 8
9 9 8 8 8 7 7 8 9 8 8 8 8 8 8 8 9 9 10 10 10 11 12 11 10 10 11 12 14 15 18 17 14 13 15 21 29 35
Wind_Direction
340 335 334 359 359 341 309 273 266 271 269 284 18 23 4 358 357 348 346 347 339 329 320 316 310 302 283 251 232 208 182 176 184 192 194 196 206 222
41 51 49 37 36 30 21 6 307 271 268 17 14 359 356 358 1 359 359 357 0 354 351 352 8 34 80 143 166 158 157 163 172 188 202 210 223 235
59 62 58 49 50 41 40 41 30 315 260 277 13 355 358 1 3 9 12 13 16 23 24 30 49 77 99 116 134 140 148 165 185 205 219 231 241 248
67 66 60 57 57 48 45 46 38 7 290 263 333 354 2 3 359 9 16 21 24 29 34 42 54 72 80 86 100 123 153 179 197 216 232 241 247 249
69 67 62 60 59 52 48 43 31 20 4 301 350 3 1 1 356 5 16 20 24 25 34 43 49 55 60 64 74 107 162 211 226 235 241 246 249 253
69 63 56 54 53 49 44 36 27 29 35 47 44 20 9 358 357 356 359 9 11 14 25 32 35 40 45 45 41 32 307 257 252 252 251 252 254 256
75 65 57 51 49 49 43 31 23 22 29 40 38 22 18 4 2 351 342 339 6 9 352 5 1 1 5 6 354 325 295 276 265 261 259 258 257 257
85 70 62 52 50 54 52 45 36 30 27 22 22 21 15 3 354 349 343 335 328 13 341 330 334 326 331 325 324 304 287 276 269 265 263 263 261 259
80 73 65 56 45 46 54 53 52 49 39 15 25 18 1 357 349 340 346 334 322 339 329 311 326 314 320 312 313 302 288 278 272 268 266 263 261 259
76 67 62 48 39 16 28 34 38 44 33 18 16 2 345 333 319 312 316 307 295 302 319 301 322 315 316 305 317 312 299 289 280 274 269 265 263 260
91 51 5 12 44 358 355 344 335 35 43 18 4 354 348 336 321 302 309 312 308 316 338 300 317 317 307 294 291 276 288 297 295 285 275 268 266 264
198 238 322 330 341 307 304 309 315 329 327 320 304 296 305 324 324 301 296 292 297 305 355 307 313 329 315 298 283 279 279 281 284 282 276 273 272 268
248 260 272 311 315 310 292 295 305 305 300 302 301 299 293 294 304 312 304 275 275 271 316 318 296 301 287 297 298 287 284 286 283 274 267 267 265 261
255 260 269 289 301 302 291 297 286 271 284 284 284 287 294 300 303 298 289 277 263 265 279 280 264 269 279 287 283 288 286 280 278 278 277 272 264 258
254 261 271 277 283 279 275 283 270 265 274 275 279 285 289 289 287 280 268 260 261 258 255 245 242 253 254 261 273 284 294 288 277 270 266 260 260 258
247 245 254 260 264 271 269 257 256 264 272 275 281 284 284 274 270 277 282 288 284 270 234 233 235 238 247 253 262 270 273 273 273 263 268 271 267 260
239 244 247 250 254 253 252 254 253 251 254 261 269 273 273 274 272 272 271 275 269 277 276 246 236 240 248 258 262 262 264 264 262 266 268 270 266 258
238 247 251 253 256 259 259 257 254 252 252 255 258 263 268 271 273 268 260 263 269 273 274 272 266 270 265 251 234 252 260 263 266 262 258 265 270 264
243 248 251 254 255 254 253 253 254 252 249 251 255 257 260 263 265 266 265 264 267 271 272 268 257 252 268 280 258 221 241 261 267 266 261 260 267 271
238 245 250 251 251 251 251 251 253 251 245 247 250 251 251 255 259 261 261 262 267 273 273 264 251 244 248 270 281 268 242 253 264 268 270 270 270 272
235 240 244 246 246 247 248 248 248 250 250 249 251 250 248 249 254 258 261 263 263 266 268 268 262 256 257 264 268 264 259 246 245 255 267 273 277 276
237 239 240 239 240 242 243 244 246 248 248 246 249 250 248 247 252 257 259 262 262 263 269 273 272 263 251 252 262 273 279 275 262 257 253 250 254 260
236 238 238 237 236 236 238 241 244 249 249 249 250 250 249 249 252 255 258 259 263 267 270 274 273 264 257 256 264 270 275 279 277 273 263 253 250 252
Height
1510 1510 1510 1509 1509 1509 1509 1509 1509 1508 1507 1506 1504 1502 1500 1499 1497 1495 1494 1492 1491 1490 1490 1490 1490 1491 1492 1494 1496 1498 1501 1503 1506 1509 1511 1513 1516 1517
1506 1506 1505 1505 1505 1504 1504 1504 1504 1504 1503 1501 1500 1498 1496 1495 1493 1491 1490 1488 1487 1486 1486 1485 1486 1486 1488 1490 1492 1494 1496 1499 1502 1504 1506 1508 1510 1511
1503 1502 1502 1501 1501 1501 1500 1500 1500 1500 1499 1498 1496 1495 1493 1491 1490 1488 1487 1485 1484 1483 1483 1482 1483 1483 1485 1486 1488 1490 1492 1494 1497 1499 1501 1503 1504 1506
1500 1500 1499 1499 1498 1498 1497 1497 1496 1496 1495 1494 1493 1491 1490 1489 1487 1486 1484 1483 1482 1481 1481 1481 1481 1481 1482 1484 1485 1487 1489 1491 1493 1494 1496 1498 1499 1500
1497 1497 1497 1496 1496 1495 1494 1494 1493 1493 1492 1491 1490 1488 1487 1486 1485 1484 1482 1481 1481 1480 1480 1479 1480 1480 1481 1482 1483 1484 1486 1487 1488 1489 1490 1491 1492 1493
1495 1495 1494 1494 1493 1493 1492 1491 1491 1490 1489 1488 1487 1486 1485 1483 1483 1481 1480 1480 1479 1478 1478 1477 1477 1478 1478 1479 1480 1480 1481 1482 1483 1483 1484 1485 1485 1486
1494 1493 1492 1492 1491 1490 1490 1489 1488 1487 1487 1486 1485 1483 1482 1481 1480 1479 1478 1477 1476 1476 1475 1475 1474 1474 1474 1474 1475 1475 1475 1476 1476 1477 1477 1478 1478 1479
1492 1491 1491 1490 1489 1488 1487 1487 1486 1485 1484 1483 1482 1481 1480 1479 1478 1477 1476 1475 1474 1473 1472 1471 1471 1470 1469 1469 1469 1469 1469 1469 1469 1470 1470 1470 1471 1471
1490 1490 1489 1488 1487 1486 1485 1484 1483 1482 1482 1481 1480 1479 1477 1476 1475 1474 1473 1472 1471 1469 1469 1468 1467 1466 1465 1464 1464 1463 1463 1463 1463 1463 1463 1463 1464 1464
1489 1488 1487 1486 1485 1484 1483 1482 1481 1479 1479 1478 1477 1476 1475 1474 1473 1472 1471 1469 1468 1467 1466 1465 1464 1463 1461 1460 1459 1458 1458 1457 1457 1457 1457 1457 1458 1458
1487 1486 1485 1484 1483 1482 1481 1480 1479 1477 1476 1475 1474 1473 1472 1471 1470 1469 1468 1467 1466 1466 1464 1463 1461 1459 1458 1457 1455 1455 1454 1454 1453 1453 1452 1453 1453 1453
1485 1484 1483 1482 1481 1480 1479 1478 1477 1476 1474 1473 1472 1471 1470 1469 1468 1467 1466 1465 1464 1464 1461 1461 1459 1457 1456 1454 1453 1452 1451 1450 1449 1449 1448 1448 1448 1448
1484 1483 1481 1480 1479 1478 1477 1476 1475 1474 1472 1471 1470 1469 1468 1467 1466 1465 1464 1463 1462 1461 1460 1458 1457 1455 1454 1452 1450 1449 1448 1447 1445 1444 1443 1443 1443 1443
1482 1481 1479 1478 1477 1476 1475 1474 1473 1472 1470 1469 1468 1467 1466 1464 1463 1462 1461 1460 1459 1458 1457 1455 1453 1452 1450 1448 1446 1445 1444 1442 1441 1439 1438 1437 1437 1437
1480 1478 1477 1476 1475 1474 1473 1471 1470 1469 1468 1467 1466 1464 1463 1461 1460 1459 1457 1456 1455 1454 1452 1451 1450 1448 1446 1444 1441 1439 1438 1437 1436 1434 1433 1432 1431 1430
1477 1476 1475 1473 1472 1471 1470 1469 1467 1466 1465 1464 1462 1461 1460 1458 1457 1455 1454 1452 1450 1449 1448 1446 1445 1443 1441 1439 1436 1433 1433 1431 1430 1429 1427 1425 1424 1423
1474 1473 1472 1471 1469 1468 1467 1465 1464 1463 1462 1460 1459 1457 1456 1454 1453 1451 1449 1448 1446 1444 1443 1441 1439 1437 1435 1433 1430 1428 1426 1424 1423 1422 1419 1417 1416 1415
1470 1469 1468 1467 1466 1465 1463 1462 1461 1459 1457 1456 1455 1453 1451 1450 1448 1446 1445 1443 1441 1439 1437 1435 1433 1431 1428 1425 1425 1421 1420 1418 1417 1415 1412 1409 1407 1407
1466 1465 1464 1463 1462 1460 1459 1458 1456 1455 1453 1451 1450 1448 1446 1445 1443 1441 1439 1437 1435 1433 1431 1429 1427 1425 1422 1418 1415 1414 1412 1411 1409 1407 1404 1401 1398 1397
1461 1460 1459 1458 1457 1456 1454 1453 1451 1450 1448 1446 1445 1443 1441 1439 1437 1435 1433 1431 1429 1426 1424 1422 1421 1419 1416 1412 1408 1405 1405 1403 1401 1398 1396 1393 1389 1388
1456 1455 1454 1453 1452 1450 1449 1447 1446 1444 1443 1441 1439 1437 1435 1433 1430 1429 1426 1424 1422 1419 1416 1415 1414 1412 1408 1405 1400 1395 1396 1394 1392 1389 1387 1384 1380 1377
1450 1449 1448 1447 1446 1445 1443 1441 1440 1438 1437 1435 1433 1431 1428 1426 1424 1422 1419 1417 1414 1412 1409 1407 1406 1403 1400 1397 1392 1388 1386 1385 1383 1380 1378 1376 1373 1367
1443 1442 1441 1441 1439 1438 1437 1435 1433 1432 1430 1428 1426 1424 1421 1419 1417 1414 1412 1410 1407 1405 1402 1399 1397 1395 1391 1388 1384 1380 1377 1374 1372 1369 1367 1365 1363 1359